Retour au catalogue

FENGYUN 1C DEB

ActifLEO
NORAD 30495·DEBRIS·🇨🇳 China

Lancé May 10, 1999 depuis Taiyuan Satellite Launch Center

Loading…

Prochains Passages (prochaines 24 heures)

TLE

FraisSource: Space-Track

Époque: Sep 14, 2026, 07:29 UTC

1 30495U 99025AHH 26257.31236407 -.00000075  00000-0 -37499-4 0  9994
2 30495 102.2710  24.5557 0591620  62.0961 303.8759 12.95363111922405

Suivez FENGYUN 1C DEB en temps réel avec AllMySat

Download on the App Store